Regional Weather Roundup
Issued by NWS

Home | Current Version | Previous Version | Graphics & Text | Print | Product List | Glossary On
Versions: 1 2 3 4 5 6 7 8 9 10 11 12 13 14 15 16 17 18 19 20 21 22 23 24 25 26 27 28 29 30 31 32 33 34 35 36 37 38 39 40 41 42 43 44 45 46 47 48 49 50
000
ASUS43 KFSD 231210
RWRSD

WEATHER ROUNDUP FOR SOUTH DAKOTA
NATIONAL WEATHER SERVICE SIOUX FALLS SD
700 AM CDT SAT MAY 23 2015

NOTE: "FAIR" INDICATES FEW OR NO CLOUDS BELOW 12,000 FEET WITH NO
SIGNIFICANT WEATHER AND/OR OBSTRUCTIONS TO VISIBILITY.


SDZ001>005-009-010-012>017-231300-
NORTHWEST AND NORTH CENTRAL SOUTH DAKOTA

CITY           SKY/WX    TMP DP  RH WIND       PRES   REMARKS
BUFFALO          N/A     44  41  89 E10       30.00S
FAITH            N/A     45  41  86 SE8       30.10S
MOBRIDGE       CLOUDY    49  45  86 E7        30.13F
$$

SDZ012>016-024>037-041>051-057-063-072>074-231300-
SOUTHWEST AND SOUTH CENTRAL SOUTH DAKOTA

CITY           SKY/WX    TMP DP  RH WIND       PRES   REMARKS
RAPID CTY ARPT CLOUDY    47  44  90 SE10      30.06R
PIERRE         CLOUDY    51  46  83 E9        30.12S
CUSTER         FOG       40  39  97 SE6       30.04F VSB<1/4
ELLSWORTH AFB  CLOUDY    48  46  92 SE13      30.05R
PHILIP         CLOUDY    49  45  86 E8        30.09F
PINE RIDGE     CLOUDY    48  44  86 E7        30.06S
SPEARFISH      MOCLDY    45  41  87 S5        30.04S
WINNER         LGT RAIN  51  48  89 E12       30.11S FOG
$$

SDZ004>011-016>023-039-040-231300-
NORTHEAST SOUTH DAKOTA

CITY           SKY/WX    TMP DP  RH WIND       PRES   REMARKS
ABERDEEN       CLOUDY    49  44  83 CALM      30.20S
WATERTOWN      CLOUDY    51  45  79 E3        30.21S
BROOKINGS      CLOUDY    54  46  76 E6        30.22S
SISSETON         N/A     50  42  74 SE3       30.21R
$$

SDZ017-020-022-023-036>040-048>070-231300-
SOUTHEAST SOUTH DAKOTA

CITY           SKY/WX    TMP DP  RH WIND       PRES   REMARKS
SIOUX FALLS    LGT RAIN  54  48  80 S3        30.21R
HURON          CLOUDY    54  46  74 SE9G18    30.17F
CHAMBERLAIN    RAIN      49  49  97 SE9       30.14S
MITCHELL       LGT RAIN  53  50  89 E10       30.18S
YANKTON        CLOUDY    54  48  82 E5        30.17S
$$

ABBREVIATIONS USED IN REMARKS
   TC - TEMPERATURE IN CELSIUS
  WCI - WIND CHILL INDEX
   HX - HEAT INDEX
  VSB - VISIBILITY



USA.gov is the U.S. government's official web portal to all federal, state and local government web resources and services.